378  
NZUS93 KARX 301310  
HRRWXR  
 
CURRENT HOURLY OBSERVATIONS ACROSS  
MUCH OF THE UPPER MISSISSIPPI VALLEY  
NATIONAL WEATHER SERVICE LA CROSSE WI  
800 AM CDT TUE SEP 30 2014  
 
   
..SOUTHEAST MINNESOTA
 
 
 
CITY SKY/WX TMP DP RH WIND PRES REMARKS  
ROCHESTER FOG 41 41 100 E13 30.06S VSB 1/2  
ROCHESTER/MAYO CLOUDY 42 40 95 E9 30.07S  
WINONA CLOUDY 43 39 87 E10 30.09F  
AUSTIN CLOUDY 43 43 100 E9 30.04S  
ALBERT LEA CLOUDY 45 45 100 E8 30.03S FOG  
DODGE CENTER FOG 43 43 100 E10 30.05S VSB 1  
PRESTON CLOUDY 42 40 94 E7 30.07S  
OWATONNA CLOUDY 43 39 87 E12 30.04F FOG  
FARIBAULT CLOUDY 45 39 81 E10 30.05S  

 
   
..ELSEWHERE IN MINNESOTA
 
 
 
CITY SKY/WX TMP DP RH WIND PRES REMARKS  
MINNEAPOLIS CLOUDY 42 39 89 E13 30.07F  
INTNL FALLS CLOUDY 42 39 89 SE9 30.09F  
DULUTH CLOUDY 42 38 85 E14 30.11F  
RED WING CLOUDY 43 37 81 E9 30.07S  
REDWOOD FALLS CLOUDY 44 42 93 E12 29.99F  
MANKATO CLOUDY 43 37 81 E12G17 30.03S  
WORTHINGTON CLOUDY 48 46 93 E13 29.95S  
FAIRMONT CLOUDY 48 43 81 E13 29.98F  

 
   
..SOUTHWEST WISCONSIN
 
 
 
CITY SKY/WX TMP DP RH WIND PRES REMARKS  
LA CROSSE CLOUDY 46 40 79 E13 30.09F  
PRAIRIE DU CHI CLOUDY 47 43 84 NE8 30.07R  
BOSCOBEL CLOUDY 47 42 83 E8 30.10R  
LONE ROCK CLOUDY 49 41 74 E9 30.10S  
PLATTEVILLE CLOUDY 45 42 91 NE12 30.08S  
FORT MC COY CLOUDY 42 39 90 E7 30.11S  
CAMP DOUGLAS CLOUDY 41 41 100 NE8 30.11S  
VIROQUA CLOUDY 43 43 100 E6 30.08S  
WIS DELLS CLOUDY 41 38 89 E9 30.10S  

 
   
..ELSEWHERE IN WISCONSIN
 
 
 
CITY SKY/WX TMP DP RH WIND PRES REMARKS  
MILWAUKEE CLOUDY 46 40 79 NW12 30.08S  
MADISON CLOUDY 44 40 85 NE8 30.10R  
GREEN BAY CLOUDY 43 40 89 N8 30.11R  
EAU CLAIRE CLOUDY 41 36 82 E8 30.10S  
BLACK RVR FLS CLOUDY 41 38 87 E5 30.11F  
MEDFORD CLOUDY 37 36 94 NE7 30.11F WCI 32  
WAUSAU CLOUDY 40 37 89 N3 30.11R  
WIS RAPIDS CLOUDY 41 36 82 E7 30.12F  
MARSHFIELD CLOUDY 40 36 86 E8 30.10F WCI 34  
RICE LAKE CLOUDY 40 37 88 NE10 30.12F WCI 33  

 
   
..NORTHEAST IOWA
 
 
 
CITY SKY/WX TMP DP RH WIND PRES REMARKS  
DECORAH CLOUDY 46 45 93 E9 30.05S  
MASON CITY CLOUDY 48 47 96 SE8 30.04R FOG  
CHARLES CITY CLOUDY 48 46 93 E9G15 30.04F  
OELWEIN CLOUDY 50 48 93 E10 30.04S  

 
   
..ELSEWHERE IN IOWA
 
 
 
CITY SKY/WX TMP DP RH WIND PRES REMARKS  
DES MOINES CLOUDY 59 56 89 VRB3 29.97S FOG  
IOWA CITY CLOUDY 54 51 90 E8 30.04R  
FORT DODGE CLOUDY 54 48 82 E9 29.98S  

 
   
..NORTHERN ILLINOIS
 
 
 
CITY SKY/WX TMP DP RH WIND PRES REMARKS  
CHICAGO-OHARE DRIZZLE 47 44 90 N12 30.06R FOG  
CHICAGO-MIDWAY DRIZZLE 52 49 89 N10 30.04R FOG  
MOLINE NOT AVBL  
ROCKFORD DRIZZLE 47 43 86 E10 30.10R FOG  
PEORIA CLOUDY 59 52 77 NE14 30.02R  

 
 
NOTE: "FAIR" INDICATES FEW OR NO CLOUDS BELOW 12,000 FEET WITH NO  
SIGNIFICANT WEATHER AND/OR OBSTRUCTIONS TO VISIBILITY. WIND  
SPEEDS ARE IN MILES-PER-HOUR.  
 
CLICK HERE TO GO TO PREVIOUS BULLETINS.

The Nexlab WI Page
The Nexlab IA Page
The Nexlab MN Page Main Text Page